TimeCAT,TemperatureF,Dew PointF,Humidity,Sea Level PressureIn,VisibilityMPH,Wind Direction,Wind SpeedMPH,Gust SpeedMPH,PrecipitationIn,Events,Conditions,WindDirDegrees,DateUTC
12:00 AM,75.2,59.0,57,29.92,-9999.0,Variable,2.3,-,N/A,,Clear,0,2013-02-14 22:00:00
1:00 AM,75.2,59.0,57,29.92,-9999.0,South,4.6,-,N/A,,Clear,180,2013-02-14 23:00:00
2:00 AM,73.4,60.8,65,29.92,-9999.0,Variable,2.3,-,N/A,,Clear,0,2013-02-15 00:00:00
3:00 AM,73.4,60.8,65,29.89,-9999.0,Variable,5.8,-,N/A,,Clear,0,2013-02-15 01:00:00
4:00 AM,69.8,60.8,73,29.92,-9999.0,Variable,1.2,-,N/A,,Clear,0,2013-02-15 02:00:00
5:00 AM,68.0,60.8,78,29.92,-9999.0,Variable,2.3,-,N/A,,Clear,0,2013-02-15 03:00:00
6:00 AM,68.0,60.8,78,29.95,-9999.0,ENE,1.2,-,N/A,,Clear,70,2013-02-15 04:00:00
7:00 AM,71.6,60.8,69,29.98,-9999.0,South,6.9,-,N/A,,Clear,190,2013-02-15 05:00:00
8:00 AM,78.8,59.0,51,30.01,-9999.0,East,5.8,-,N/A,,Clear,100,2013-02-15 06:00:00
9:00 AM,82.4,57.2,42,30.01,-9999.0,ENE,8.1,38.0,N/A,,Clear,70,2013-02-15 07:00:00
10:00 AM,86.0,57.2,37,29.98,-9999.0,Variable,2.3,-,N/A,,Clear,0,2013-02-15 08:00:00
11:00 AM,89.6,57.2,33,29.98,-9999.0,NE,5.8,-,N/A,,Clear,50,2013-02-15 09:00:00
12:00 PM,91.4,55.4,29,29.95,6.2,Variable,3.5,-,N/A,,Partly Cloudy,0,2013-02-15 10:00:00
1:00 PM,95.0,53.6,25,29.92,6.2,SE,6.9,-,N/A,,Scattered Clouds,130,2013-02-15 11:00:00
2:00 PM,95.0,53.6,25,29.92,6.2,SE,6.9,-,N/A,Thunderstorm,Thunderstorm,130,2013-02-15 12:00:00
3:00 PM,93.2,48.2,21,29.89,6.2,ENE,10.4,-,N/A,Thunderstorm,Thunderstorm,60,2013-02-15 13:00:00
4:00 PM,87.8,53.6,31,29.86,6.2,WSW,10.4,-,N/A,Thunderstorm,Thunderstorm,240,2013-02-15 14:00:00
5:00 PM,93.2,55.4,28,29.86,6.2,SSW,3.5,-,N/A,,Scattered Clouds,210,2013-02-15 15:00:00
6:00 PM,93.2,51.8,24,29.86,6.2,South,8.1,-,N/A,,Partly Cloudy,170,2013-02-15 16:00:00
7:00 PM,86.0,53.6,33,29.89,6.2,South,13.8,-,N/A,,Scattered Clouds,180,2013-02-15 17:00:00
10:00 PM,77.0,57.2,50,29.95,6.2,NE,3.5,-,N/A,,Partly Cloudy,40,2013-02-15 20:00:00
11:00 PM,77.0,55.4,47,29.98,-9999.0,NE,3.5,-,N/A,,Clear,40,2013-02-15 21:00:00